Weather History for Grazzanise, Italy

Change the Weather History Date:

Sunday, November 4, 2012

  Actual Average Record
Temperature  
Mean Temperature 61 °F -  
Max Temperature 68 °F 62 °F - ()
Min Temperature 54 °F 44 °F - ()
Degree Days  
Heating Degree Days 4    
Growing Degree Days 11 (Base 50)    
Moisture  
Dew Point 59 °F    
Average Humidity 93    
Maximum Humidity 100    
Minimum Humidity 83    
Precipitation  
Precipitation 0.00 in 0.17 in - ()
Sea Level Pressure  
Sea Level Pressure 29.97 in    
Wind  
Wind Speed 5 mph ()    
Max Wind Speed 14 mph    
Max Gust Speed -    
Visibility 4.9 miles    
Events Rain    
T = Trace of Precipitation, MM = Missing Value Source: Averaged Metar Reports

Daily Weather History Graph

Daily Weather History Graph

Search for Another Location

Airport:

Trip Planner

Search our weather history database for the weather conditions in past years. The results will help you decide how hot, cold, wet, or windy it might be!

Date:

Astronomy

Nov. 04, 2012 Rise Set
Actual Time 6:38 AM CET 4:55 PM CET
Civil Twilight 6:09 AM CET 5:24 PM CET
Nautical Twilight 5:36 AM CET 5:56 PM CET
Astronomical Twilight 5:04 AM CET 6:29 PM CET
Moon 9:16 PM CET (11/4) 11:11 AM CET (11/4)
Length of Visible Light 11h 14m
Length of Day
10h 17m
Waning Gibbous, 74% of the Moon is Illuminated
Nov 4
Waning Gibbous
Nov 7
Last Quarter
Nov 13
New
Nov 20
First Quarter
Nov 28
Full

Hourly Weather History & Observations

Time (CET) Temp. Dew Point Humidity Pressure Visibility Wind Dir Wind Speed Gust Speed Precip Events Conditions
12:55 AM 53.6 °F 51.8 °F 94% 30.06 in 6.2 mi NE 4.6 mph - N/A   Mostly Cloudy
1:00 AM 54 °F 52 °F 92% 30.07 in 6 mi NE 4.6 mph - -   Partly Cloudy
1:55 AM 53.6 °F 51.8 °F 94% 30.06 in 6.2 mi NE 3.5 mph - N/A   Mostly Cloudy
2:55 AM 53.6 °F 51.8 °F 94% 30.04 in 6.2 mi ENE 3.5 mph - N/A   Mostly Cloudy
3:55 AM 53.6 °F 51.8 °F 94% 30.04 in 6.2 mi NE 4.6 mph - N/A   Mostly Cloudy
4:00 AM 54 °F 51 °F 87% 30.04 in 6 mi NE 4.6 mph - -   Mostly Cloudy
4:55 AM 55.4 °F 51.8 °F 88% 30.01 in 6.2 mi NNE 4.6 mph - N/A   Mostly Cloudy
5:55 AM 55.4 °F 53.6 °F 94% 30.01 in 6.2 mi NNE 4.6 mph - N/A   Mostly Cloudy
6:55 AM 57.2 °F 55.4 °F 94% 30.01 in 6.2 mi NNE 3.5 mph - N/A   Mostly Cloudy
7:00 AM 58 °F 57 °F 94% 30.01 in 6 mi NNE 3.5 mph - -   Partly Cloudy
7:55 AM 57.2 °F 55.4 °F 94% 30.01 in 6.2 mi North 3.5 mph - N/A   Mostly Cloudy
8:55 AM 59.0 °F 57.2 °F 94% 30.01 in 6.2 mi NNE 5.8 mph - N/A   Mostly Cloudy
9:55 AM 60.8 °F 59.0 °F 94% 30.01 in 6.2 mi North 2.3 mph - N/A   Mostly Cloudy
10:55 AM 60.8 °F 59.0 °F 94% 30.01 in 6.2 mi NNE 2.3 mph - N/A   Overcast
11:55 AM 62.6 °F 60.8 °F 94% 29.98 in 6.2 mi North 5.8 mph - N/A   Overcast
12:14 PM 62.6 °F 60.8 °F 94% 29.98 in 2.5 mi NNW 4.6 mph - N/A   Light Drizzle
12:55 PM 62.6 °F 62.6 °F 100% 29.95 in 3.7 mi North 8.1 mph - N/A   Mostly Cloudy
1:00 PM 63 °F 62 °F 96% 29.97 in 4 mi North 8.1 mph - -   Overcast
1:55 PM 64.4 °F 62.6 °F 94% 29.95 in 1.9 mi SE 5.8 mph - N/A Rain Rain
2:15 PM 64.4 °F 62.6 °F 94% 29.92 in 2.2 mi South 12.7 mph - N/A Rain Light Rain
2:55 PM 66.2 °F 64.4 °F 94% 29.92 in 2.8 mi South 12.7 mph - N/A Rain Light Rain
3:55 PM 66.2 °F 62.6 °F 88% 29.92 in 3.7 mi South 11.5 mph - N/A Rain Light Rain
4:00 PM 65 °F 63 °F 92% 29.93 in 4 mi South 11.5 mph - - Rain Light Rain
4:31 PM 66.2 °F 62.6 °F 88% 29.92 in 2.5 mi SE 8.1 mph - N/A Rain Light Rain
4:55 PM 64.4 °F 62.6 °F 94% 29.92 in 3.7 mi SE 5.8 mph - N/A Rain Light Rain
5:55 PM 64.4 °F 62.6 °F 94% 29.92 in 5.0 mi ENE 4.6 mph - N/A Rain Light Rain
6:55 PM 62.6 °F 62.6 °F 100% 29.92 in 5.0 mi NE 2.3 mph - N/A   Mostly Cloudy
7:00 PM 63 °F 62 °F 96% 29.93 in 5 mi NE 2.3 mph - -   Overcast
7:55 PM 62.6 °F 62.6 °F 100% 29.92 in 4.3 mi Calm Calm - N/A   Mostly Cloudy
8:55 PM 62.6 °F 60.8 °F 94% 29.89 in 4.3 mi NE 5.8 mph - N/A Rain Light Rain
9:55 PM 66.2 °F 62.6 °F 88% 29.89 in 5.0 mi SE 4.6 mph - N/A Rain Light Rain
10:00 PM 65 °F 62 °F 89% 29.90 in 5 mi SE 4.6 mph - - Rain Light Rain
10:55 PM 68.0 °F 62.6 °F 83% 29.86 in 5.0 mi South 13.8 mph - N/A Rain Light Rain
11:55 PM 68.0 °F 64.4 °F 88% 29.86 in 5.0 mi South 12.7 mph - N/A Rain Light Rain